When you browse on this site, cookies collect data to enhance your experience and personalize the content and advertising you see.
Visit our Privacy Policy to learn more. By continuing to use the site, you agree to this use of cookies and data.
  • In Hungary
  • List of Countries
  • For 7 days
  • Water Temperature
  • Satellite Maps
  • Weather Map
  • News
  • Weather Widgets
  • user-avatar
    Login

    Hourly Weather Castrillon

    Today, 10 December, Monday

    Time Temperature Precipitation Wind Pressure Humidity
    00:00 +8°C° 0 mm 1 mps 737 mmHg 86%
    01:00 +8°C° 0 mm 1 mps 737 mmHg 84%
    02:00 +8°C° 0 mm 1 mps 737 mmHg 81%
    03:00 +8°C° 0 mm 1 mps 737 mmHg 79%
    04:00 +8°C° 0 mm 1 mps 736 mmHg 77%
    05:00 +8°C° 0 mm 1 mps 736 mmHg 75%
    06:00 +7°C° 0 mm 1 mps 736 mmHg 72%
    07:00 +8°C° 0 mm 1 mps 736 mmHg 70%
    08:00 +7°C° 0 mm 2 mps 736 mmHg 68%
    09:00 +8°C° 0 mm 2 mps 736 mmHg 65%
    10:00 +10°C° 0 mm 2 mps 735 mmHg 60%
    11:00 +13°C° 0 mm 2 mps 735 mmHg 55%
    12:00 +15°C° 0 mm 2 mps 735 mmHg 50%
    13:00 +15°C° 0 mm 2 mps 734 mmHg 53%
    14:00 +15°C° 0 mm 2 mps 734 mmHg 57%
    15:00 +15°C° 0 mm 2 mps 733 mmHg 61%
    16:00 +13°C° 0 mm 2 mps 733 mmHg 67%
    17:00 +12°C° 0 mm 2 mps 733 mmHg 72%
    18:00 +9°C° 0 mm 2 mps 732 mmHg 78%
    19:00 +9°C° 0 mm 2 mps 732 mmHg 76%
    20:00 +9°C° 0 mm 2 mps 732 mmHg 74%
    21:00 +8°C° 0 mm 3 mps 732 mmHg 72%
    22:00 +8°C° 0 mm 2 mps 731 mmHg 70%
    23:00 +8°C° 0 mm 2 mps 731 mmHg 68%

    Tomorrow, 11 December, Tuesday

    Time Temperature Precipitation Wind Pressure Humidity
    00:00 +8°C° 0 mm 2 mps 731 mmHg 65%
    01:00 +8°C° 0 mm 2 mps 730 mmHg 64%
    02:00 +8°C° 0 mm 2 mps 730 mmHg 63%
    03:00 +8°C° 0 mm 2 mps 729 mmHg 61%
    04:00 +8°C° 0 mm 2 mps 729 mmHg 60%
    05:00 +8°C° 0 mm 2 mps 729 mmHg 59%
    06:00 +8°C° 0 mm 2 mps 729 mmHg 59%
    07:00 +9°C° 0 mm 2 mps 729 mmHg 57%
    08:00 +9°C° 0 mm 2 mps 729 mmHg 56%
    09:00 +10°C° 0 mm 2 mps 729 mmHg 55%
    10:00 +13°C° 0 mm 2 mps 729 mmHg 53%
    11:00 +14°C° 0 mm 2 mps 729 mmHg 50%
    12:00 +16°C° 0 mm 2 mps 729 mmHg 47%
    13:00 +16°C° 0 mm 2 mps 729 mmHg 51%
    14:00 +16°C° 0 mm 2 mps 729 mmHg 55%
    15:00 +15°C° 0 mm 2 mps 729 mmHg 59%
    16:00 +14°C° 0 mm 2 mps 729 mmHg 68%
    17:00 +12°C° 0 mm 2 mps 729 mmHg 76%
    18:00 +9°C° 0 mm 2 mps 730 mmHg 84%
    19:00 +9°C° 0.1 mm 2 mps 730 mmHg 86%
    20:00 +9°C° 0.1 mm 2 mps 730 mmHg 88%
    21:00 +9°C° 0.1 mm 2 mps 731 mmHg 90%
    22:00 +10°C° 0 mm 1 mps 731 mmHg 90%
    23:00 +10°C° 0 mm 1 mps 731 mmHg 91%

    Day after tomorrow, 12 December, Wednesday

    Time Temperature Precipitation Wind Pressure Humidity
    00:00 +10°C° 0 mm 1 mps 731 mmHg 92%
    01:00 +9°C° 0 mm 1 mps 731 mmHg 93%
    02:00 +8°C° 0 mm 0 mps 730 mmHg 94%
    03:00 +7°C° 0 mm 0 mps 730 mmHg 95%
    04:00 +7°C° 0 mm 0 mps 730 mmHg 95%
    05:00 +7°C° 0 mm 0 mps 730 mmHg 94%
    06:00 +7°C° 0 mm 0 mps 729 mmHg 94%
    07:00 +8°C° 0 mm 1 mps 729 mmHg 93%
    08:00 +9°C° 0 mm 1 mps 729 mmHg 92%
    09:00 +9°C° 0 mm 1 mps 729 mmHg 90%
    10:00 +10°C° 0 mm 1 mps 728 mmHg 84%
    11:00 +12°C° 0 mm 2 mps 728 mmHg 78%
    12:00 +13°C° 0 mm 2 mps 728 mmHg 72%
    13:00 +12°C° 0.2 mm 2 mps 727 mmHg 75%
    14:00 +12°C° 0.2 mm 2 mps 727 mmHg 79%
    15:00 +10°C° 0.2 mm 2 mps 726 mmHg 83%
    16:00 +10°C° 0.2 mm 2 mps 726 mmHg 85%
    17:00 +9°C° 0.2 mm 2 mps 726 mmHg 87%
    18:00 +9°C° 0.2 mm 2 mps 725 mmHg 89%
    19:00 +8°C° 0 mm 2 mps 725 mmHg 88%
    20:00 +8°C° 0 mm 2 mps 725 mmHg 87%
    21:00 +8°C° 0 mm 2 mps 725 mmHg 85%
    22:00 +8°C° 0 mm 2 mps 724 mmHg 84%
    23:00 +9°C° 0 mm 3 mps 724 mmHg 83%

    13 December, Thursday

    Time Temperature Precipitation Wind Pressure Humidity
    00:00 +9°C° 0 mm 3 mps 724 mmHg 81%
    01:00 +9°C° 0.2 mm 3 mps 724 mmHg 83%
    02:00 +10°C° 0.2 mm 3 mps 724 mmHg 84%
    03:00 +10°C° 0.2 mm 4 mps 724 mmHg 85%
    04:00 +9°C° 0.7 mm 3 mps 724 mmHg 88%
    05:00 +9°C° 0.7 mm 3 mps 725 mmHg 91%
    06:00 +9°C° 0.7 mm 3 mps 725 mmHg 94%
    07:00 +9°C° 0.1 mm 3 mps 725 mmHg 92%
    08:00 +8°C° 0.1 mm 3 mps 726 mmHg 91%
    09:00 +8°C° 0.1 mm 3 mps 726 mmHg 90%
    10:00 +9°C° 0 mm 3 mps 727 mmHg 85%
    11:00 +9°C° 0 mm 3 mps 727 mmHg 81%
    12:00 +10°C° 0 mm 4 mps 727 mmHg 76%
    13:00 +10°C° 0 mm 3 mps 727 mmHg 75%
    14:00 +10°C° 0 mm 3 mps 727 mmHg 73%
    15:00 +10°C° 0 mm 3 mps 726 mmHg 71%
    16:00 +9°C° 0 mm 3 mps 727 mmHg 75%
    17:00 +9°C° 0 mm 3 mps 727 mmHg 79%
    18:00 +8°C° 0 mm 3 mps 727 mmHg 83%
    19:00 +8°C° 0 mm 3 mps 727 mmHg 82%
    20:00 +8°C° 0 mm 3 mps 727 mmHg 81%
    21:00 +7°C° 0 mm 4 mps 727 mmHg 80%
    22:00 +7°C° 0 mm 4 mps 726 mmHg 79%
    23:00 +7°C° 0 mm 4 mps 726 mmHg 78%

    14 December, Friday

    Time Temperature Precipitation Wind Pressure Humidity
    00:00 +7°C° 0 mm 4 mps 726 mmHg 76%
    01:00 +8°C° 0 mm 5 mps 726 mmHg 76%
    02:00 +8°C° 0 mm 5 mps 725 mmHg 76%
    03:00 +9°C° 0 mm 5 mps 725 mmHg 76%
    04:00 +9°C° 0.1 mm 5 mps 725 mmHg 78%
    05:00 +10°C° 0.1 mm 5 mps 725 mmHg 79%
    06:00 +10°C° 0.1 mm 5 mps 724 mmHg 80%
    07:00 +12°C° 0.1 mm 5 mps 725 mmHg 81%
    08:00 +11°C° 0.1 mm 6 mps 726 mmHg 82%
    09:00 +13°C° 0.1 mm 6 mps 726 mmHg 83%
    10:00 +13°C° 0 mm 6 mps 727 mmHg 82%
    11:00 +14°C° 0 mm 6 mps 727 mmHg 80%
    12:00 +14°C° 0 mm 5 mps 728 mmHg 79%
    13:00 +14°C° 0 mm 5 mps 728 mmHg 78%
    14:00 +14°C° 0 mm 5 mps 728 mmHg 76%
    15:00 +14°C° 0 mm 5 mps 728 mmHg 74%
    16:00 +13°C° 0 mm 4 mps 728 mmHg 79%
    17:00 +12°C° 0 mm 4 mps 729 mmHg 83%
    18:00 +11°C° 0 mm 3 mps 729 mmHg 87%
    19:00 +11°C° 0 mm 3 mps 730 mmHg 86%
    20:00 +12°C° 0 mm 3 mps 730 mmHg 86%
    21:00 +12°C° 0 mm 3 mps 730 mmHg 85%
    22:00 +12°C° 0 mm 3 mps 730 mmHg 84%
    23:00 +12°C° 0 mm 3 mps 730 mmHg 84%

    15 December, Saturday

    Time Temperature Precipitation Wind Pressure Humidity
    00:00 +12°C° 0 mm 3 mps 730 mmHg 83%
    01:00 +13°C° 0 mm 3 mps 730 mmHg 84%
    02:00 +13°C° 0 mm 3 mps 730 mmHg 84%
    03:00 +13°C° 0 mm 3 mps 730 mmHg 85%
    04:00 +13°C° 0 mm 3 mps 729 mmHg 84%
    05:00 +13°C° 0 mm 3 mps 729 mmHg 83%
    06:00 +13°C° 0 mm 3 mps 729 mmHg 83%
    07:00 +13°C° 0 mm 3 mps 729 mmHg 81%
    08:00 +13°C° 0 mm 4 mps 729 mmHg 80%
    09:00 +14°C° 0 mm 4 mps 729 mmHg 79%
    10:00 +15°C° 0 mm 4 mps 729 mmHg 76%
    11:00 +17°C° 0 mm 4 mps 729 mmHg 74%
    12:00 +18°C° 0 mm 4 mps 729 mmHg 71%
    13:00 +17°C° 0.1 mm 4 mps 729 mmHg 75%
    14:00 +17°C° 0.1 mm 4 mps 729 mmHg 78%
    15:00 +15°C° 0.1 mm 4 mps 728 mmHg 81%
    16:00 +14°C° 0.9 mm 4 mps 729 mmHg 85%
    17:00 +13°C° 0.9 mm 4 mps 729 mmHg 89%
    18:00 +13°C° 0.9 mm 4 mps 729 mmHg 93%
    19:00 +12°C° 0.9 mm 3 mps 730 mmHg 94%
    20:00 +12°C° 0.9 mm 3 mps 730 mmHg 94%
    21:00 +12°C° 0.9 mm 2 mps 731 mmHg 95%
    22:00 +12°C° 0.1 mm 2 mps 731 mmHg 95%
    23:00 +12°C° 0.1 mm 2 mps 731 mmHg 95%
    Show more